Volver al catálogo

VEP

ActivoMilitarGTO
NORAD 22979·PAYLOAD·🇯🇵 Japan

Lanzado Feb 3, 1994 desde Tanegashima Space Center

Loading…

TLE

ObsoletoSource: Space-Track

Época: Sep 13, 2026, 08:20 UTC

1 22979U 94007B   26256.34744821 -.00000070  00000-0  39666-3 0  9994
2 22979  29.1910 349.0827 7229381 343.7241   1.9442  2.25996907268298

Sigue VEP en tiempo real con AllMySat

Download on the App Store